DW2270 Weather Reports


Display with metric or nautical units.
time (UTC)temp
F
wind
direction
speed
MPH
gust
MPH
rain 1hr
in
rain 24hr
in
rain mn
in
humidity
%
barometer
mb
20260503184216 82 21 0.0 7.0 0.00 0.00 0.00 36 1020.7
20260503183217 82 99 1.0 7.0 0.00 0.00 0.00 37 1020.8
20260503182224 81 137 1.0 2.0 0.00 0.00 0.00 38 1020.9
20260503181245 81 331 0.0 5.0 0.00 0.00 0.00 40 1021.1
20260503180219 81 167 1.0 7.0 0.00 0.00 0.00 38 1021.4
20260503175237 81 201 1.0 7.0 0.00 0.00 0.00 38 1021.6
20260503174222 81 101 0.0 5.0 0.00 0.00 0.00 38 1021.8
20260503173225 81 129 0.0 5.0 0.00 0.00 0.00 40 1021.9
20260503172233 80 160 1.0 5.0 0.00 0.00 0.00 41 1022.2
20260503171245 81 129 1.0 4.0 0.00 0.00 0.00 38 1022.2
20260503170257 80 131 0.0 6.0 0.00 0.00 0.00 41 1022.2
20260503150849 72 77 0.0 4.0 0.00 0.00 0.00 61 1022.3
20260503130209 55 327 0.0 0.0 0.00 0.00 0.00 4 1021.6
20260503090151 56 327 0.0 0.0 0.00 0.01 0.00 13 1020.3
20260503081118 56 327 0.0 0.0 0.00 0.01 0.00 14 1020.4
20260503071826 57 327 0.0 0.0 0.00 0.01 0.00 16 1020.4
20260503070846 57 327 0.0 0.0 0.00 0.01 0.00 16 1020.5
20260503054722 59 327 0.0 0.0 0.00 0.01 0.00 20 1020.7
20260503051424 60 327 0.0 0.0 0.00 0.01 0.00 22 1020.4
20260503050436 60 327 0.0 0.0 0.00 0.01 0.00 22 1020.5
20260503044249 60 327 0.0 0.0 0.00 0.01 0.01 24 1020.3
20260503043313 61 327 0.0 0.0 0.00 0.01 0.01 26 1020.2
20260503042316 61 327 0.0 0.0 0.00 0.01 0.01 28 1020.2
20260503041310 61 327 0.0 0.0 0.00 0.01 0.01 29 1020.2
20260503040328 61 327 0.0 0.0 0.00 0.01 0.01 32 1020.3
20260503035259 62 327 0.0 0.0 0.00 0.01 0.01 36 1020.2
20260503034313 62 327 0.0 0.0 0.00 0.01 0.01 39 1020.0
20260503033252 62 327 0.0 0.0 0.00 0.01 0.01 41 1019.8
20260503032300 62 327 0.0 0.0 0.00 0.01 0.01 43 1019.7
20260503031227 63 327 0.0 0.0 0.00 0.01 0.01 45 1019.8
20260503030206 63 327 0.0 0.0 0.00 0.01 0.01 49 1019.7
20260503025223 64 327 0.0 0.0 0.00 0.01 0.01 52 1019.6
20260503024232 64 327 0.0 0.0 0.00 0.01 0.01 55 1019.8
20260503023234 65 327 0.0 0.0 0.00 0.01 0.01 58 1019.6
20260503022233 65 327 0.0 0.0 0.00 0.01 0.01 59 1019.3
20260503021220 66 327 0.0 0.0 0.00 0.01 0.01 61 1019.3
20260503015104 67 327 0.0 0.0 0.00 0.01 0.01 65 1018.9
20260503014044 68 327 0.0 0.0 0.00 0.01 0.01 66 1018.8
20260503013054 69 327 0.0 0.0 0.00 0.01 0.01 65 1018.8
20260503012114 70 327 0.0 0.0 0.00 0.01 0.01 65 1018.7
20260503011125 71 327 0.0 0.0 0.00 0.01 0.01 63 1018.6
20260503010121 72 327 0.0 0.0 0.00 0.01 0.01 57 1018.5
20260503005114 72 327 0.0 0.0 0.00 0.02 0.01 56 1018.3
20260503003002 73 327 0.0 0.0 0.00 0.04 0.01 54 1018.1
20260503002002 74 327 0.0 2.0 0.00 0.05 0.01 51 1018.1
20260503001024 74 316 0.0 0.0 0.00 0.06 0.01 51 1017.9
20260503000043 74 297 0.0 1.0 0.00 0.07 0.01 49 1017.8
20260502235015 75 278 0.0 4.0 0.00 0.09 0.01 48 1017.8
20260502233951 75 344 1.0 4.0 0.00 0.11 0.01 47 1017.8
20260502232928 75 340 0.0 5.0 0.00 0.14 0.01 46 1017.8
20260502231858 76 167 1.0 5.0 0.00 0.14 0.01 45 1017.7
20260502230916 77 88 0.0 3.0 0.00 0.16 0.01 44 1017.6
20260502224756 78 300 0.0 3.0 0.00 0.26 0.01 44 1017.7
20260502223731 78 223 0.0 8.0 0.00 0.26 0.01 43 1017.8
20260502222717 78 343 0.0 8.0 0.00 0.26 0.01 43 1017.8
20260502221718 78 337 0.0 2.0 0.00 0.26 0.01 44 1017.9
20260502215537 79 297 0.0 6.0 0.00 0.28 0.01 42 1017.9
20260502213400 79 338 0.0 5.0 0.00 0.35 0.01 42 1018.0
20260502212420 79 344 0.0 3.0 0.00 0.37 0.01 42 1018.0
20260502211403 79 66 1.0 5.0 0.00 0.38 0.01 44 1018.1
20260502210406 78 325 1.0 5.0 0.00 0.39 0.01 43 1018.2
20260502205425 79 297 1.0 6.0 0.00 0.41 0.01 44 1018.3
20260502204357 78 97 1.0 7.0 0.00 0.42 0.01 44 1018.4
20260502203343 78 109 0.0 7.0 0.00 0.43 0.01 42 1018.6
20260502202350 78 342 1.0 9.0 0.00 0.45 0.01 44 1018.5
20260502201354 78 36 1.0 9.0 0.00 0.47 0.01 42 1018.7
20260502200344 78 329 0.0 6.0 0.00 0.47 0.01 44 1018.7
20260502195401 77 257 1.0 6.0 0.00 0.48 0.01 43 1018.8
20260502194348 77 324 1.0 5.0 0.00 0.49 0.01 45 1018.9
20260502193351 78 16 0.0 4.0 0.00 0.50 0.01 44 1019.1
20260502192341 77 331 1.0 10.0 0.00 0.52 0.01 46 1019.2
20260502191318 76 139 1.0 10.0 0.00 0.52 0.01 45 1019.3
20260502190308 76 323 2.0 10.0 0.00 0.53 0.01 46 1019.4
20260502185258 76 304 1.0 10.0 0.00 0.53 0.01 48 1019.5